User: anonymous   Login
Location: Banios
(43.0451°N, 0.2335°E)
Time: 03:28:30
(UTC+00:00)
Language:

Cosmos 1606 Rocket - Orbit

View from above orbital plane
View from above orbital plane
View from above satellite
View from above satellite

Ground track
Ground track

The orbit data is extracted from the following two-line orbital elements,

1 15370U 84111B   21107.54233441  .00000077  00000-0  63017-5 0  9994
2 15370  82.5142 134.6154 0022334 114.3576 245.9974 14.83753126950717
Epoch (UTC): 17 April 2021 13:00:57
Eccentricity: 0.0022334
inclination: 82.5142°
perigee height: 602 km
apogee height: 633 km
right ascension of ascending node: 134.6154°
argument of perigee: 114.3576°
revolutions per day: 14.83753126
mean anomaly at epoch: 245.9974°
orbit number at epoch: 95071

The dashed part of the orbit path shows where the satellite is in the earth's shadow,  

DLR